Home > Time Zones > World Clock > Weather > Italy > Genoa > Past weeks

Flag for Italy Weather past 2 weeks in Genoa, Italy

Now
73 °F

Passing clouds.


Feels Like: 74 °F
Forecast: 70 / 77 °F
Wind: 9 mph from Southeast

Location: Genova / Sestri

Current Time: Aug 2, 2014 at 5:57:27 AM

Latest Report: Aug 2, 2014 at 5:20 AM


Visibility: N/A

Pressure: 29.83 "Hg

Humidity: 78%

Dew point: 66 °F

Location of GenoaLocation

Historic Weather in Genoa — Graph

°F

Genoa temperature yesterday

Maximum temperature yesterday: 79 °F (at 12:20 PM)
Minimum temperature yesterday: 72 °F (at 2:20 AM)
Average temperature yesterday: 75 °F

Past Weeks' High & Low Weather Summary

 TemperatureHumidityPressure
High86 °F (Jul 20, 2:20 PM)94% (Jul 21, 3:50 AM)30.07 "Hg (Jul 21, 3:50 AM)
Low66 °F (Jul 31, 6:20 AM)40% (Jul 20, 2:20 PM)29.65 "Hg (Jul 30, 4:20 AM)
Average75 °F72%29.85 "Hg
* Reported Jul 18 4:20 AM — Aug 2 4:50 AM, Genoa, Weather by CustomWeather, © 2014

Note: Actual official high and low records may vary slightly from our data, if they occured in-between our weather recording intervals... More about our weather records

Advertising

Genoa weather history for previous 24 hours

 ConditionsComfort  
Time TempWeatherWind HumidityBarometerVisibility
4:50 AM
Aug 2
73 °FPassing clouds.12 mph83%29.83 "HgN/A
4:20 AM73 °FPassing clouds.12 mph83%29.83 "HgN/A
3:50 AM73 °FPassing clouds.10 mph83%29.83 "HgN/A
3:20 AM73 °FPassing clouds.10 mph83%29.86 "HgN/A
2:50 AM73 °FPassing clouds.9 mph83%29.83 "HgN/A
2:20 AM73 °FPassing clouds.8 mph83%29.86 "HgN/A
1:50 AM73 °FPassing clouds.6 mph83%29.86 "HgN/A
1:20 AM73 °FPassing clouds.7 mph83%29.86 "HgN/A
12:50 AM73 °FPassing clouds.9 mph83%29.86 "HgN/A
12:20 AM73 °FPassing clouds.10 mph83%29.86 "HgN/A
11:50 PM
Aug 1
73 °FPassing clouds.9 mph83%29.83 "HgN/A
11:20 PM73 °FPassing clouds.6 mph83%29.86 "HgN/A
10:50 PM73 °FPassing clouds.3 mph83%29.86 "HgN/A
10:20 PM73 °FPassing clouds.3 mph83%29.83 "HgN/A
9:50 PM73 °FPassing clouds.5 mph83%29.83 "HgN/A
9:20 PM73 °FScattered clouds.3 mph83%29.83 "HgN/A
8:50 PM73 °FScattered clouds.5 mph83%29.83 "HgN/A
8:20 PM73 °FScattered clouds.8 mph78%29.83 "HgN/A
7:50 PM75 °FScattered clouds.6 mph78%29.83 "HgN/A
7:20 PM75 °FScattered clouds.3 mph78%29.83 "HgN/A
6:50 PM75 °FPassing clouds.2 mph74%29.80 "HgN/A
6:20 PM77 °FPassing clouds.3 mph74%29.80 "HgN/A
5:50 PM77 °FPassing clouds.3 mph74%29.83 "HgN/A
5:20 PM77 °FPassing clouds.5 mph74%29.83 "HgN/A
4:50 PM79 °FPassing clouds.6 mph70%29.83 "HgN/A
4:20 PM77 °FPassing clouds.6 mph74%29.83 "HgN/A
3:50 PM79 °FPassing clouds.5 mph70%29.83 "HgN/A
3:20 PM79 °FScattered clouds.5 mph70%29.83 "HgN/A
2:50 PM77 °FScattered clouds.5 mph74%29.86 "HgN/A
2:20 PM77 °FScattered clouds.5 mph74%29.86 "HgN/A
1:50 PM79 °FScattered clouds.5 mph70%29.86 "HgN/A
1:20 PM79 °FScattered clouds.6 mph70%29.86 "HgN/A
12:50 PM79 °FScattered clouds.6 mph65%29.86 "HgN/A
12:20 PM79 °FScattered clouds.6 mph70%29.86 "HgN/A
11:50 AM77 °FScattered clouds.6 mph74%29.86 "HgN/A
11:20 AM77 °FScattered clouds.7 mph74%29.86 "HgN/A
10:50 AM77 °FScattered clouds.8 mph74%29.86 "HgN/A
10:20 AM77 °FScattered clouds.7 mph74%29.86 "HgN/A
9:50 AM77 °FScattered clouds.7 mph74%29.86 "HgN/A
9:20 AM75 °FScattered clouds.5 mph74%29.86 "HgN/A
8:50 AM75 °FScattered clouds.3 mph74%29.86 "HgN/A
8:20 AM73 °FPartly sunny.3 mph78%29.86 "HgN/A
7:50 AM73 °FScattered clouds.3 mph78%29.83 "HgN/A
7:20 AM72 °FScattered clouds.3 mph83%29.83 "HgN/A
6:50 AM72 °FPassing clouds.5 mph83%29.83 "HgN/A
6:20 AM72 °FPassing clouds.5 mph83%29.83 "HgN/A
5:50 AM72 °FPassing clouds.6 mph83%29.83 "HgN/A
5:20 AM72 °FPassing clouds.5 mph83%29.86 "HgN/A
Weather by CustomWeather, © 2014

See weather overviewHow to use our weather pages